Weather History for Tupelo, MS

Change the Weather History Date:

Thursday, March 27, 2014

  Actual Average Record
Temperature  
Mean Temperature 58 °F 57 °F  
Max Temperature 71 °F 69 °F 83 °F (1945)
Min Temperature 44 °F 45 °F 18 °F (1955)
Degree Days  
Heating Degree Days 7 9  
Month to date heating degree days 423 322  
Since 1 July heating degree days 3253 2753  
Cooling Degree Days 0 1  
Month to date cooling degree days 0 5  
Year to date cooling degree days 0 7  
Growing Degree Days 8 (Base 50)    
Moisture  
Dew Point 40 °F    
Average Humidity 61    
Maximum Humidity 84    
Minimum Humidity 37    
Precipitation  
Precipitation 0.73 in 0.15 in 2.98 in (1994)
Month to date precipitation 2.26 4.23  
Year to date precipitation 8.35 13.67  
Snow  
Snow 0.00 in 0.00 in T in (1944)
Month to date snowfall T 0.3  
Since 1 July snowfall 0.5 2.1  
Snow Depth 0.00 in    
Sea Level Pressure  
Sea Level Pressure 30.03 in    
Wind  
Wind Speed 16 mph (SSW)    
Max Wind Speed 28 mph    
Max Gust Speed 39 mph    
Visibility 9 miles    
Events Rain , Thunderstorm    
T = Trace of Precipitation, MM = Missing Value Source: NWS Daily Summary

Daily Weather History Graph

Daily Weather History Graph

Search for Another Location

Airport:

Trip Planner

Search our weather history database for the weather conditions in past years. The results will help you decide how hot, cold, wet, or windy it might be!

Date:

Astronomy

Mar. 27, 2014 Rise Set
Actual Time 6:49 AM CDT 7:12 PM CDT
Civil Twilight 6:24 AM CDT 7:37 PM CDT
Nautical Twilight 5:54 AM CDT 8:06 PM CDT
Astronomical Twilight 5:24 AM CDT 8:36 PM CDT
Moon 4:31 AM CDT (3/27) 4:07 PM CDT (3/27)
Length of Visible Light 13h 13m
Length of Day
12h 23m
Waning Crescent, 13% of the Moon is Illuminated
Mar 27
Waning Crescent
Mar 30
New
Apr 7
First Quarter
Apr 15
Full
Apr 22
Last Quarter

Hourly Weather History & Observations

Time (CDT) Temp. Windchill Dew Point Humidity Pressure Visibility Wind Dir Wind Speed Gust Speed Precip Events Conditions
12:53 AM 46.0 °F 43.1 °F 26.1 °F 46% 30.19 in 10.0 mi SW 5.8 mph - N/A   Clear
1:53 AM 46.9 °F - 27.0 °F 46% 30.16 in 10.0 mi South 11.5 mph - N/A   Clear
2:53 AM 46.9 °F - 27.0 °F 46% 30.14 in 10.0 mi South 11.5 mph - N/A   Mostly Cloudy
3:53 AM 48.0 °F - 26.1 °F 42% 30.12 in 10.0 mi SSW 11.5 mph - N/A   Mostly Cloudy
4:53 AM 48.9 °F - 26.1 °F 41% 30.12 in 10.0 mi South 11.5 mph - N/A   Overcast
5:53 AM 48.0 °F - 27.0 °F 44% 30.12 in 10.0 mi South 10.4 mph - N/A   Overcast
6:53 AM 48.0 °F - 30.0 °F 50% 30.14 in 10.0 mi South 9.2 mph - 0.00 in Rain Light Rain
7:53 AM 46.9 °F - 32.0 °F 56% 30.14 in 10.0 mi South 9.2 mph - 0.01 in   Overcast
8:53 AM 48.9 °F - 32.0 °F 52% 30.16 in 10.0 mi South 11.5 mph - N/A   Overcast
9:53 AM 51.1 °F - 33.1 °F 50% 30.15 in 10.0 mi South 16.1 mph - N/A   Overcast
10:53 AM 54.0 °F - 34.0 °F 47% 30.13 in 10.0 mi South 13.8 mph 24.2 mph 0.00 in   Overcast
11:53 AM 57.9 °F - 37.9 °F 47% 30.11 in 10.0 mi South 19.6 mph 24.2 mph N/A   Mostly Cloudy
12:53 PM 63.0 °F - 39.0 °F 41% 30.07 in 10.0 mi South 20.7 mph 31.1 mph N/A   Mostly Cloudy
1:53 PM 64.9 °F - 41.0 °F 42% 30.03 in 10.0 mi South 17.3 mph 32.2 mph N/A   Mostly Cloudy
2:53 PM 66.0 °F - 42.1 °F 42% 29.99 in 10.0 mi South 20.7 mph 27.6 mph N/A   Overcast
3:53 PM 69.1 °F - 44.1 °F 40% 29.96 in 10.0 mi SSW 20.7 mph 29.9 mph N/A   Partly Cloudy
4:53 PM 69.1 °F - 43.0 °F 39% 29.94 in 10.0 mi South 21.9 mph 31.1 mph N/A   Clear
5:53 PM 69.1 °F - 45.0 °F 42% 29.88 in 10.0 mi South 23.0 mph 31.1 mph N/A   Clear
6:53 PM 69.1 °F - 45.0 °F 42% 29.88 in 10.0 mi SSW 19.6 mph 32.2 mph N/A   Mostly Cloudy
7:53 PM 68.0 °F - 46.9 °F 47% 29.88 in 10.0 mi SSW 18.4 mph 27.6 mph N/A   Overcast
8:06 PM 66.9 °F - 48.0 °F 51% 29.88 in 10.0 mi South 18.4 mph 25.3 mph N/A Thunderstorm Thunderstorm
8:34 PM 60.1 °F - 53.1 °F 78% 29.98 in 1.8 mi WNW 10.4 mph - 0.12 in Rain , Thunderstorm Heavy Thunderstorms and Rain
8:44 PM 60.1 °F - 54.0 °F 80% 29.92 in 3.0 mi South 10.4 mph 25.3 mph 0.26 in Rain , Thunderstorm Thunderstorms and Rain
8:53 PM 60.1 °F - 54.0 °F 80% 29.95 in 5.0 mi WSW 3.5 mph - 0.28 in Rain , Thunderstorm Rain
9:36 PM 60.1 °F - 55.0 °F 83% 29.94 in 10.0 mi South 13.8 mph - 0.15 in Rain Light Rain
9:53 PM 60.1 °F - 55.0 °F 83% 29.94 in 10.0 mi SSW 11.5 mph - 0.15 in   Mostly Cloudy
10:53 PM 61.0 °F - 55.0 °F 81% 29.95 in 10.0 mi SSW 12.7 mph - N/A   Overcast
11:38 PM 60.1 °F - 55.9 °F 86% 29.97 in 10.0 mi SSW 13.8 mph - 0.04 in Rain , Thunderstorm Light Rain
11:53 PM 60.1 °F - 55.9 °F 86% 29.94 in 7.0 mi South 19.6 mph - 0.07 in Rain Rain